Strona główna
METAR-TAF:

METAR-TAF

Lotnisko :

Platforma wiertnicza

K13-a, Holandia

Szerokość geograficzna: 53-13-04N, Długość geograficzna: 3-13-13E, wysokość: 31 m

Aktualna obserwacja pogody

Raport powstał 26 minut temu, godzina 11:55 UTC
Wiatr 19 kt od wschód
Temperatura 14°C
Wilgotność 82%
Ciśnienie 1025 hPa

METAR: EHJR 011155Z AUTO 08019KT //// // ///////// 14/11 Q1025 RE// W13/H8

czas: 14:21 (12:21 UTC)


TAF: brakujący

Obserwacja i prognoza pogody dla ponad 4000 lotnisk (raport METAR i TAF).

Dostępne stacje oznaczono żółtymi i czerwonymi punktami na mapie.

Najedź kursorem aby zobaczyć nazwę stacji.

Kliknij aby zobaczyć obserwacje i prognozy pogody.

Aby zmienić mapę: kliknij na zielony przycisk z czarnym krzyżykiem, aby powiększyć; na zielony przycisk z myślnikiem, aby pomniejszyć; na zielone strzałki, aby przejść do map sąsiednich.


METAR-TAF: